TimeMDT,TemperatureF,Dew PointF,Humidity,Sea Level PressureIn,VisibilityMPH,Wind Direction,Wind SpeedMPH,Gust SpeedMPH,PrecipitationIn,Events,Conditions,WindDirDegrees,DateUTC
12:52 AM,41.0,12.0,31,29.93,10.0,SE,15.0,-,N/A,,Clear,140,2013-05-04 06:52:00
1:52 AM,34.0,12.0,40,29.96,10.0,South,5.8,-,N/A,,Partly Cloudy,180,2013-05-04 07:52:00
2:52 AM,28.0,10.9,49,29.96,10.0,South,6.9,-,N/A,,Clear,170,2013-05-04 08:52:00
3:52 AM,27.0,10.0,49,29.97,10.0,Calm,Calm,-,N/A,,Clear,0,2013-05-04 09:52:00
4:52 AM,30.0,12.9,49,29.96,10.0,NW,4.6,-,N/A,,Clear,310,2013-05-04 10:52:00
5:52 AM,21.9,10.0,60,30.00,10.0,WNW,4.6,-,N/A,,Clear,300,2013-05-04 11:52:00
6:52 AM,26.1,12.0,55,30.01,10.0,West,3.5,-,N/A,,Clear,270,2013-05-04 12:52:00
7:52 AM,39.0,16.0,39,29.99,10.0,North,4.6,-,N/A,,Clear,360,2013-05-04 13:52:00
8:52 AM,45.0,16.0,31,29.99,10.0,NNE,3.5,-,N/A,,Clear,30,2013-05-04 14:52:00
9:52 AM,48.0,12.0,24,29.96,10.0,Variable,4.6,-,N/A,,Clear,0,2013-05-04 15:52:00
10:52 AM,53.1,10.9,19,29.94,10.0,Variable,5.8,-,N/A,,Clear,0,2013-05-04 16:52:00
11:52 AM,55.9,9.0,15,29.92,10.0,Variable,5.8,-,N/A,,Clear,0,2013-05-04 17:52:00
12:52 PM,57.9,7.0,13,29.90,10.0,Variable,4.6,-,N/A,,Clear,0,2013-05-04 18:52:00
1:52 PM,60.1,3.9,11,29.90,10.0,East,4.6,-,N/A,,Clear,80,2013-05-04 19:52:00
2:52 PM,63.0,-2.0,7,29.90,10.0,South,6.9,-,N/A,,Clear,180,2013-05-04 20:52:00
3:52 PM,64.9,1.0,8,29.88,10.0,Variable,4.6,-,N/A,,Clear,0,2013-05-04 21:52:00
4:52 PM,64.9,1.0,8,29.86,10.0,SE,4.6,-,N/A,,Clear,140,2013-05-04 22:52:00
5:52 PM,60.1,12.0,15,29.94,10.0,ESE,11.5,21.9,N/A,,Scattered Clouds,120,2013-05-04 23:52:00
6:52 PM,55.9,18.0,23,29.96,10.0,ESE,16.1,25.3,N/A,,Mostly Cloudy,120,2013-05-05 00:52:00
7:52 PM,51.1,19.0,28,29.94,10.0,East,26.5,33.4,N/A,,Scattered Clouds,100,2013-05-05 01:52:00
8:52 PM,48.9,19.0,31,29.95,10.0,East,23.0,34.5,N/A,,Mostly Cloudy,100,2013-05-05 02:52:00
9:52 PM,46.9,18.0,32,29.97,10.0,ESE,20.7,27.6,N/A,,Mostly Cloudy,110,2013-05-05 03:52:00
10:52 PM,46.0,18.0,33,29.99,10.0,ESE,15.0,-,N/A,,Mostly Cloudy,120,2013-05-05 04:52:00
11:52 PM,42.1,18.0,38,30.01,10.0,ESE,6.9,-,N/A,,Clear,110,2013-05-05 05:52:00